[[{"header":{"parameterUnit":"m.s-1","parameterCategory":1,"la1":30.2991,"la2":30.254,"lo1":-89.0895,"lo2":-89.0444,"dy":0.0017,"dx":0.0017,"nx":28,"ny":28,"refTime":"2023-10-28T03:00:00:Z","depth":0,"parameterNumber":2,"parameterNumberName":"U-component_of_WINDS"},"data":[0,0,0,0,0,0,0,0,0,0,0,0,0,0,0,0,0,0,0,0,0,0,0,0,0,0,0,0,0,0,0,0,0,0,0,0,0,0,0,0,0,0,0,0,0,0,0,0,0,0,0,0,0,0,0,0,0,0,-2.3979,-2.398,0,-2.4061,-2.4062,-2.4063,-2.4015,-2.4013,-2.401,-2.4008,-2.4089,-2.4094,-2.4098,0,0,0,0,0,0,0,0,0,0,0,0,0,-2.3777,-2.3781,-2.3979,-2.398,-2.3981,-2.4061,-2.4062,-2.4063,-2.4015,-2.4013,-2.401,-2.4007,-2.4088,-2.4093,-2.4098,0,0,0,0,0,0,0,0,0,0,0,0,0,-2.3863,-2.3783,-2.3979,-2.3967,-2.3967,-2.4061,-2.4062,-2.4064,-2.4016,-2.4013,-2.4009,-2.4006,-2.4086,-2.4093,-2.4099,-2.4209,0,0,-2.4119,-2.4122,0,0,0,0,0,0,0,0,-2.3858,-2.387,-2.3967,-2.3968,-2.3968,-2.4024,-2.4021,-2.4112,-2.4017,-2.3997,-2.4008,-2.4004,-2.407,-2.4078,-2.4101,-2.4213,-2.4216,-2.4119,-2.4123,-2.4126,-2.4128,0,0,0,0,0,0,0,-2.3852,-2.3866,-2.4011,-2.3969,-2.3969,-2.3956,-2.3965,-2.4038,-2.4052,-2.3999,-2.3995,-2.4006,-2.407,-2.4095,-2.4102,-2.4217,-2.4119,-2.4125,-2.4129,-2.4131,-2.4423,-2.4427,0,0,0,0,0,0,-2.3848,-2.3862,-2.4009,-2.4014,-2.3903,-2.3963,-2.3972,-2.401,-2.4051,-2.4054,-2.4009,-2.4003,-2.4085,-2.4095,-2.4105,-2.4237,-2.4126,-2.4132,-2.4136,-2.442,-2.4424,-2.4428,0,0,0,0,0,0,-2.3843,-2.3861,-2.4005,-2.3937,-2.3954,-2.397,-2.4013,-2.4013,-2.4038,-2.4059,-2.4061,-2.4032,-2.4083,-2.4096,-2.4184,-2.4239,-2.4135,-2.4141,-2.4415,-2.4421,-2.4426,-2.4501,0,0,0,0,0,0,-2.3838,-2.386,-2.3902,-2.3938,-2.3958,-2.4084,-2.4016,-2.4017,-2.405,-2.4044,-2.4081,-2.4084,-2.4081,-2.4174,-2.419,-2.4246,-2.4146,-2.441,-2.4418,-2.4424,-2.4494,-2.4508,-2.4521,0,0,0,0,0,-2.3831,-2.3919,-2.3905,-2.3923,-2.4012,-2.4087,-2.4098,-2.4094,-2.4055,-2.4097,-2.411,-2.4083,-2.423,-2.4184,-2.4201,-2.426,-2.4407,-2.4415,-2.4424,-2.4487,-2.4506,-2.4521,0,0,0,0,0,0,-2.3888,-2.3924,-2.3908,-2.4011,-2.4047,-2.4079,-2.4132,-2.4113,-2.416,-2.4152,-2.4144,-2.4152,-2.4244,-2.426,-2.4208,-2.4368,-2.4312,-2.4325,-2.4354,-2.4372,-2.4385,-2.438,-2.4151,0,0,0,0,0,-2.3913,-2.3972,-2.3999,-2.4087,-2.4106,-2.4116,-2.4149,-2.4143,-2.4179,-2.4193,-2.4213,-2.4248,-2.4302,-2.4338,-2.4389,-2.4496,-2.4503,-2.4545,-2.4558,-2.457,-2.4581,-2.4639,-2.4657,-2.4457,-2.4457,-2.4457,0,0,-2.3964,-2.3991,-2.4028,-2.41,-2.4126,-2.4187,-2.4129,-2.4195,-2.424,-2.4202,-2.4287,-2.4303,-2.4341,-2.4439,-2.4483,-2.4456,-2.4638,-2.4581,-2.459,-2.4594,-2.465,-2.4668,-2.4685,-2.4463,-2.4462,-2.4461,0,0,-2.4089,-2.4115,-2.4192,-2.422,-2.4262,-2.4268,-2.4287,-2.4322,-2.4332,-2.4417,-2.439,-2.4442,-2.4536,-2.4565,-2.4592,-2.4728,-2.4705,-2.4745,-2.4817,-2.4874,-2.489,-2.4904,-2.4953,-2.497,-2.4756,-2.4756,-2.4756,0,-2.4147,-2.4238,-2.4233,-2.4302,-2.4334,-2.4305,-2.4382,-2.4409,-2.4465,-2.4487,-2.4456,-2.4573,-2.4597,-2.4702,-2.4735,-2.4758,-2.4778,-2.4741,-2.4888,-2.4902,-2.4915,-2.4962,-2.498,-2.4761,-2.476,-2.476,-2.4759,0,-2.4308,-2.4372,-2.4428,-2.4485,-2.4523,-2.4596,-2.4601,-2.464,-2.4631,-2.4641,-2.4727,-2.4755,-2.4811,-2.4836,-2.4826,-2.4939,-2.4921,-2.4889,-2.4832,-2.4939,-2.4983,-2.5,-2.4767,-2.4766,-2.4764,-2.4763,0,0,-2.4471,-2.4524,-2.4545,-2.4571,-2.4615,-2.4663,-2.4735,-2.4791,-2.4825,-2.4864,-2.4924,-2.5004,-2.4975,-2.5006,-2.5,-2.5049,-2.5156,-2.5011,-2.5012,-2.5038,-2.5282,-2.5306,-2.5327,-2.5141,-2.5144,-2.5147,-2.5279,0,-2.4598,-2.4724,-2.4722,-2.4838,-2.4897,-2.487,-2.4932,-2.4966,-2.4977,-2.5027,-2.5038,-2.5096,-2.5053,-2.5072,-2.512,-2.5133,-2.5205,-2.5124,-2.5195,-2.5198,-2.5187,-2.535,-2.5375,-2.5498,-2.5296,-2.5299,-2.5301,0,-2.4764,-2.4811,-2.4934,-2.497,-2.4995,-2.5051,-2.5102,-2.5151,-2.5189,-2.5193,-2.5228,-2.5214,-2.5286,-2.5227,-2.5325,-2.527,-2.5299,-2.531,-2.5315,-2.5321,-2.5256,-2.5361,-2.5537,-2.5556,-2.5328,-2.5326,-2.5324,0,-2.4871,-2.4964,-2.505,-2.5073,-2.5117,-2.5157,-2.5177,-2.5211,-2.5246,-2.529,-2.5312,-2.5365,-2.5393,-2.5433,-2.5434,-2.5391,-2.5533,-2.5475,-2.5538,-2.5539,-2.557,-2.5568,-2.5754,-2.5588,-2.5588,-2.5588,-2.5587,0,-2.5014,-2.509,-2.5099,-2.5152,-2.5236,-2.5233,-2.5316,-2.5332,-2.5363,-2.5418,-2.5397,-2.5448,-2.5446,-2.5498,-2.5498,-2.558,-2.5593,-2.5598,-2.5597,-2.56,-2.5599,-2.5619,-2.561,-2.5593,-2.5591,-2.5591,-2.559,0,-2.5148,-2.5157,-2.5248,-2.5283,-2.5294,-2.5355,-2.5384,-2.5434,-2.5443,-2.5513,-2.5529,-2.5543,-2.5604,-2.5608,-2.5677,-2.5678,-2.5777,-2.5766,-2.5765,-2.5763,-2.5826,-2.5821,-2.6032,-2.6059,-2.5876,-2.5877,-2.5879,0,-2.5238,-2.5297,-2.5339,-2.5375,-2.5398,-2.5455,-2.5491,-2.5489,-2.5527,-2.5574,-2.5618,-2.5677,-2.5724,-2.5821,-2.5837,-2.589,-2.5881,-2.5951,-2.5889,-2.589,-2.5882,-2.5879,-2.5885,-2.5963,-2.5965,-2.5967,-2.5968,0,-2.5399,-2.5401,-2.5453,-2.5508,-2.5551,-2.5593,-2.5632,-2.5663,-2.5666,-2.5709,-2.5771,-2.5808,-2.588,-2.5938,-2.599,-2.6009,-2.599,-2.5988,-2.6006,-2.6009,-2.6006,-2.6009,-2.5798,-2.5983,-2.5982,-2.5981,-2.598,-2.5979,-2.5514,-2.5565,-2.5603,-2.5662,-2.5692,-2.573,-2.5779,-2.5794,-2.5847,-2.5906,-2.5902,-2.5971,-2.6006,-2.6074,-2.6098,-2.6151,-2.6127,-2.6152,-2.6159,-2.6165,-2.6172,-2.5998,-2.616,-2.616,-2.616,-2.6159,-2.6159,0,-2.5674,-2.5697,-2.5752,-2.5809,-2.5855,-2.5834,-2.5877,-2.5917,-2.5978,-2.6014,-2.6061,-2.6132,-2.6189,-2.621,-2.6265,-2.6303,-2.6296,-2.6318,-2.6315,-2.632,-2.619,-2.617,-2.6323,-2.6323,-2.6323,-2.6323,-2.6323,-2.6323,-2.5763,-2.5848,-2.5854,-2.5954,-2.5976,-2.6045,-2.6071,-2.6105,-2.6134,-2.6216,-2.6263,-2.6277,-2.6306,-2.6363,-2.6414,-2.6418,-2.644,-2.6466,-2.6467,-2.6345,-2.6329,-2.6313,-2.6294,-2.647,-2.6471,-2.6592,-2.6593,-2.6594]},{"header":{"parameterUnit":"m.s-1","parameterCategory":1,"la1":30.2991,"la2":30.254,"lo1":-89.0895,"lo2":-89.0444,"dy":0.0017,"dx":0.0017,"nx":28,"ny":28,"refTime":"2023-10-28T03:00:00:Z","depth":0,"parameterNumber":3,"parameterNumberName":"V-component_of_WINDS"},"data":[0,0,0,0,0,0,0,0,0,0,0,0,0,0,0,0,0,0,0,0,0,0,0,0,0,0,0,0,0,0,0,0,0,0,0,0,0,0,0,0,0,0,0,0,0,0,0,0,0,0,0,0,0,0,0,0,0,0,0.3393,0.3395,0,0.3539,0.354,0.3542,0.3611,0.3611,0.361,0.361,0.3758,0.3762,0.3766,0,0,0,0,0,0,0,0,0,0,0,0,0,0.3176,0.3179,0.3393,0.3395,0.3397,0.3538,0.354,0.3542,0.3611,0.3611,0.361,0.361,0.3757,0.3762,0.3767,0,0,0,0,0,0,0,0,0,0,0,0,0,0.329,0.318,0.3393,0.3448,0.3454,0.3538,0.354,0.3543,0.3611,0.3611,0.361,0.361,0.3755,0.3761,0.3767,0.3807,0,0,0.3786,0.3788,0,0,0,0,0,0,0,0,0.3284,0.3298,0.3438,0.3444,0.3451,0.3556,0.3518,0.3631,0.3611,0.3551,0.361,0.361,0.3691,0.3702,0.373,0.3814,0.382,0.3786,0.379,0.3792,0.3794,0,0,0,0,0,0,0,0.3276,0.3292,0.3451,0.344,0.3448,0.3466,0.3482,0.354,0.362,0.3556,0.3562,0.3578,0.3695,0.3724,0.3734,0.3822,0.3786,0.3791,0.3795,0.3797,0.395,0.395,0,0,0,0,0,0,0.3259,0.3285,0.3446,0.3455,0.3366,0.347,0.3488,0.3523,0.362,0.3634,0.3578,0.3581,0.3714,0.3727,0.3739,0.3795,0.3792,0.3798,0.3801,0.395,0.395,0.3951,0,0,0,0,0,0,0.3254,0.3272,0.344,0.3372,0.3394,0.3474,0.3512,0.3526,0.3555,0.3636,0.3651,0.3593,0.3714,0.3731,0.3791,0.3801,0.3801,0.3806,0.3949,0.395,0.395,0.3904,0,0,0,0,0,0,0.3247,0.327,0.3285,0.3372,0.3398,0.3488,0.3513,0.3529,0.3565,0.357,0.3654,0.3668,0.3715,0.3781,0.3797,0.3809,0.3811,0.3948,0.3949,0.395,0.3905,0.3903,0.3902,0,0,0,0,0,0.3239,0.3266,0.3286,0.3305,0.3418,0.3488,0.3504,0.3558,0.3566,0.3583,0.3635,0.3665,0.3797,0.3787,0.3805,0.3819,0.3948,0.3949,0.395,0.3906,0.3904,0.3902,0,0,0,0,0,0,0.3177,0.3278,0.3301,0.3356,0.3413,0.35,0.3522,0.3553,0.3609,0.3611,0.3677,0.3695,0.375,0.379,0.3777,0.3865,0.3876,0.388,0.3836,0.3835,0.3833,0.3822,0.3816,0,0,0,0,0,0.317,0.3219,0.3304,0.3344,0.3372,0.3442,0.3474,0.3512,0.3574,0.3598,0.3655,0.3714,0.3769,0.3804,0.3859,0.3912,0.3932,0.3931,0.3929,0.3927,0.3931,0.3965,0.3966,0.3954,0.3954,0.3954,0,0,0.3156,0.3217,0.3243,0.3333,0.3382,0.3432,0.3462,0.3512,0.355,0.3606,0.3666,0.371,0.378,0.3838,0.3866,0.3873,0.3939,0.3928,0.3926,0.3931,0.3966,0.3967,0.3968,0.3955,0.3954,0.3954,0,0,0.3155,0.3205,0.3246,0.3295,0.3369,0.3416,0.3426,0.3509,0.3541,0.3603,0.3646,0.3693,0.3785,0.3835,0.3872,0.3894,0.3924,0.3909,0.39,0.3933,0.3934,0.3935,0.3946,0.3948,0.3913,0.3912,0.3912,0,0.3128,0.3204,0.3262,0.3312,0.3352,0.3406,0.3449,0.3493,0.3581,0.3607,0.3615,0.3735,0.3786,0.3857,0.3863,0.389,0.3905,0.3901,0.3929,0.3931,0.3933,0.3944,0.3947,0.391,0.3911,0.3911,0.3911,0,0.3168,0.3221,0.3245,0.333,0.3373,0.3418,0.3484,0.352,0.3555,0.3602,0.3666,0.3729,0.3799,0.3819,0.3852,0.3896,0.3899,0.3917,0.3929,0.3931,0.3943,0.3947,0.3907,0.3908,0.3909,0.3909,0,0,0.3131,0.3251,0.3259,0.33,0.3387,0.3429,0.3478,0.3548,0.3579,0.3638,0.3683,0.3762,0.378,0.3822,0.3862,0.389,0.3907,0.3906,0.3908,0.3906,0.3963,0.395,0.3954,0.3928,0.3929,0.393,0.3958,0,0.3144,0.3235,0.3291,0.3359,0.3411,0.3464,0.3508,0.3566,0.3612,0.3662,0.3713,0.3769,0.3787,0.3814,0.3844,0.3899,0.392,0.3897,0.3971,0.3973,0.3954,0.3959,0.3945,0.3969,0.3963,0.3963,0.3964,0,0.3171,0.3231,0.3306,0.3391,0.3414,0.3452,0.3523,0.357,0.3638,0.367,0.3719,0.3759,0.3815,0.3823,0.3901,0.3885,0.3919,0.395,0.3952,0.3963,0.3969,0.3972,0.3977,0.3982,0.3971,0.397,0.397,0,0.314,0.3239,0.3298,0.3331,0.3431,0.3457,0.3499,0.3568,0.3608,0.367,0.3697,0.3763,0.38,0.3851,0.391,0.3909,0.3984,0.3995,0.4013,0.4012,0.4027,0.4026,0.404,0.4045,0.4045,0.4045,0.4045,0,0.3149,0.3193,0.3286,0.3321,0.3373,0.3437,0.3487,0.3534,0.3596,0.3643,0.3693,0.3736,0.3809,0.3862,0.3908,0.3968,0.3984,0.4012,0.4024,0.4009,0.4005,0.4033,0.4033,0.4046,0.4046,0.4046,0.4046,0,0.3123,0.3186,0.3254,0.3344,0.3368,0.3402,0.348,0.3518,0.3567,0.3626,0.3644,0.3721,0.3786,0.385,0.3936,0.3967,0.4028,0.4042,0.4005,0.4012,0.4027,0.4026,0.4061,0.4071,0.4067,0.4067,0.4067,0,0.3125,0.3161,0.3256,0.3292,0.3334,0.339,0.3432,0.3498,0.3539,0.3622,0.3651,0.372,0.3779,0.388,0.3944,0.4012,0.403,0.4038,0.404,0.4025,0.4033,0.4031,0.4037,0.4036,0.4036,0.4036,0.4036,0,0.3124,0.3155,0.3213,0.3284,0.3332,0.3391,0.3451,0.3477,0.3554,0.3599,0.3667,0.3713,0.3803,0.3872,0.3947,0.3992,0.4028,0.4035,0.4043,0.4028,0.4006,0.4021,0.4003,0.4034,0.4034,0.4034,0.4034,0.4034,0.3114,0.315,0.3223,0.3288,0.334,0.3396,0.3437,0.3493,0.3551,0.363,0.3666,0.3735,0.3806,0.3912,0.3957,0.4013,0.4021,0.4032,0.4035,0.4037,0.4036,0.3996,0.4026,0.4026,0.4026,0.4027,0.4027,0,0.3118,0.3169,0.3227,0.3311,0.3362,0.3392,0.3461,0.3502,0.3563,0.3627,0.3685,0.3765,0.3833,0.3903,0.3976,0.4007,0.4025,0.4024,0.4023,0.4034,0.4022,0.4009,0.4008,0.4008,0.4008,0.4008,0.4008,0.4008,0.3126,0.3189,0.3228,0.3319,0.337,0.3439,0.3476,0.3529,0.3581,0.3668,0.3725,0.3772,0.3839,0.3917,0.3982,0.4001,0.4026,0.4021,0.4045,0.4033,0.4034,0.4035,0.4023,0.4025,0.4025,0.4052,0.4052,0.4052]}]]